Beaufort, NC

5:14 PM EDT on April 24, 2018 (GMT -0400)
Smith

Weather History for KMRH - November, 2012

Change the Weather History Date:

Thursday, November 8, 2012

  Actual Average Record
Temperature  
Mean Temperature 47 °F -  
Max Temperature 57 °F 66 °F 82 °F (1986)
Min Temperature 37 °F 44 °F 23 °F (1967)
Degree Days  
Heating Degree Days 18    
Moisture  
Dew Point 34 °F    
Average Humidity 65    
Maximum Humidity 96    
Minimum Humidity 39    
Precipitation  
Precipitation 0.00 in - - ()
Sea Level Pressure  
Sea Level Pressure 29.99 in    
Wind  
Wind Speed 10 mph (NW)    
Max Wind Speed 14 mph    
Max Gust Speed -    
Visibility 10 miles    
Events      
Averages and records for this station are not official NWS values.
T = Trace of Precipitation, MM = Missing Value Source: NWS Daily Summary

Daily Weather History Graph

Daily Weather History Graph

Search for Another Location

Airport or City:

Astronomy

Nov. 08, 2012 Rise Set
Actual Time 6:34 AM EST 5:06 PM EST
Civil Twilight 6:07 AM EST 5:32 PM EST
Nautical Twilight 5:37 AM EST 6:02 PM EST
Astronomical Twilight 5:07 AM EST 6:32 PM EST
Moon 12:41 AM EST (11/8) 1:33 PM EST (11/8)
Length of Visible Light 11h 24m
Length of Day
10h 31m
Waning Crescent, 33% of the Moon is Illuminated
Nov 8
Waning Crescent
Nov 13
New
Nov 20
First Quarter
Nov 28
Full
Dec 6
Last Quarter

Hourly Weather History & Observations

Time (EST) Temp. Windchill Dew Point Humidity Pressure Visibility Wind Dir Wind Speed Gust Speed Precip Events Conditions
12:56 AM 39.9 °F 33.9 °F 37.0 °F 89% 29.90 in 10.0 mi North 9.2 mph - N/A   Clear
2:56 AM 39.0 °F 31.8 °F 37.0 °F 93% 29.91 in 10.0 mi NNW 11.5 mph - N/A   Clear
3:56 AM 39.0 °F 31.4 °F 36.0 °F 89% 29.93 in 10.0 mi NW 12.7 mph - N/A   Clear
4:56 AM 37.9 °F 31.5 °F 36.0 °F 93% 29.95 in 10.0 mi WNW 9.2 mph - N/A   Clear
5:56 AM 37.9 °F 30.9 °F 35.1 °F 89% 29.95 in 10.0 mi NW 10.4 mph - N/A   Clear
6:56 AM 37.0 °F 31.0 °F 36.0 °F 96% 29.98 in 10.0 mi NW 8.1 mph - N/A   Clear
7:56 AM 39.9 °F 34.5 °F 36.0 °F 86% 30.00 in 10.0 mi NW 8.1 mph - N/A   Clear
8:56 AM 43.0 °F 37.7 °F 36.0 °F 76% 30.01 in 10.0 mi NW 9.2 mph - N/A   Clear
9:56 AM 46.0 °F 40.6 °F 36.0 °F 68% 30.02 in 10.0 mi NW 11.5 mph - N/A   Partly Cloudy
10:56 AM 51.1 °F - 30.9 °F 46% 30.01 in 10.0 mi NW 13.8 mph - N/A   Clear
11:56 AM 54.0 °F - 33.1 °F 45% 29.99 in 10.0 mi NW 11.5 mph - N/A   Clear
12:56 PM 55.0 °F - 32.0 °F 42% 29.97 in 10.0 mi WNW 12.7 mph - N/A   Clear
1:56 PM 55.9 °F - 32.0 °F 40% 29.97 in 10.0 mi WNW 12.7 mph - N/A   Clear
2:56 PM 57.0 °F - 32.0 °F 39% 29.96 in 10.0 mi WNW 13.8 mph - N/A   Clear
3:56 PM 57.0 °F - 33.1 °F 40% 29.97 in 10.0 mi WNW 13.8 mph - N/A   Clear
4:56 PM 53.1 °F - 34.0 °F 48% 29.99 in 10.0 mi WNW 9.2 mph - N/A   Clear
5:56 PM 48.9 °F - 35.1 °F 59% 30.01 in 10.0 mi West 5.8 mph - N/A   Clear
6:56 PM 46.9 °F - 36.0 °F 66% 30.03 in 10.0 mi WNW 6.9 mph - N/A   Clear
7:56 PM 46.0 °F 44.8 °F 32.0 °F 58% 30.04 in 10.0 mi West 3.5 mph - N/A   Clear
8:56 PM 46.0 °F 43.1 °F 32.0 °F 58% 30.04 in 10.0 mi WNW 5.8 mph - N/A   Clear
9:56 PM 45.0 °F 41.8 °F 32.0 °F 60% 30.05 in 10.0 mi WNW 5.8 mph - N/A   Clear
10:56 PM 46.0 °F 41.9 °F 30.0 °F 54% 30.05 in 10.0 mi WNW 8.1 mph - N/A   Clear
11:56 PM 46.9 °F - 28.9 °F 50% 30.06 in 10.0 mi NW 9.2 mph - N/A   Clear